Wind_Speed
72 67 64 60 57 58 55 49 47 47 49 50 47 41 39 39 38 34 34 36 35 31 28 28 28 28 28 28 29 30 30 29 28 26 26 24 23 23 25 27 28 28 28 29 31 34 36 38 38 37 37 36 35 34 33 33 31 30 28 26 25 24 23 22 21 20 20 20 21 22 23 21 19 18
76 72 68 65 61 60 57 52 48 47 49 51 48 44 41 39 38 36 35 37 35 30 29 30 29 29 29 30 31 31 31 29 28 26 25 24 23 23 25 27 28 28 28 29 31 34 36 37 38 38 38 37 36 35 34 33 32 30 28 27 25 24 23 22 22 21 20 21 22 22 21 18 17 17
80 76 73 70 66 63 59 55 51 48 49 52 50 47 44 40 39 38 37 37 35 31 30 31 30 29 30 31 32 32 31 29 28 27 26 24 23 24 26 28 29 28 28 29 31 33 35 37 37 38 38 38 37 36 35 34 33 31 30 28 27 25 24 23 22 21 21 22 22 21 18 16 16 16
81 80 78 76 72 67 60 56 52 49 50 52 50 48 46 42 39 38 38 39 37 32 31 31 29 29 31 32 33 32 31 30 30 28 26 25 25 26 27 29 29 29 29 29 30 32 34 36 36 37 38 38 38 37 36 35 34 33 31 29 28 26 25 24 23 21 22 22 22 19 16 15 15 15
82 81 80 80 78 72 64 57 53 50 51 53 51 49 48 44 41 39 38 40 39 34 32 31 29 30 32 33 33 32 31 31 30 29 28 27 27 28 28 29 29 30 30 30 31 32 33 35 36 37 38 38 38 37 37 36 35 34 32 30 28 27 26 24 23 23 23 22 20 18 16 16 16 15
80 81 80 80 80 77 69 60 54 51 52 53 52 50 49 47 44 41 40 41 41 37 34 32 30 30 33 33 33 32 30 31 31 30 29 28 28 29 29 29 30 30 30 31 32 32 33 35 36 37 38 38 38 38 37 36 35 34 33 31 29 28 26 25 25 24 23 21 19 18 17 17 16 14
78 78 78 78 78 76 71 64 56 52 52 54 53 51 51 50 48 44 42 42 42 39 34 32 30 31 33 33 31 30 30 31 31 31 30 29 29 29 29 30 30 30 30 31 32 33 35 36 36 37 38 38 38 37 36 36 35 34 33 31 30 29 27 27 26 25 23 21 19 19 18 17 15 13
76 75 75 76 75 73 71 68 61 56 54 54 55 53 52 52 51 48 45 43 42 39 34 32 32 31 33 33 30 29 31 32 32 31 30 30 30 29 30 30 30 29 30 31 32 33 35 36 37 37 37 37 37 36 36 36 35 34 33 32 31 30 29 28 26 25 23 22 21 20 19 18 15 13
75 74 73 74 74 72 70 69 66 61 57 55 56 56 55 54 53 51 48 43 41 38 35 34 34 32 33 33 30 29 31 32 32 31 30 31 31 30 30 30 30 30 30 31 32 33 34 35 36 36 37 37 37 37 36 36 36 35 34 34 33 32 31 29 27 26 25 23 22 21 19 18 17 16
72 73 73 73 73 72 70 70 68 64 60 57 57 57 57 56 54 53 49 45 41 38 36 35 35 34 34 35 32 29 30 32 32 31 31 31 31 30 30 30 30 29 30 30 30 31 32 33 34 35 36 36 36 37 36 36 36 36 35 35 35 33 31 29 28 27 26 24 23 22 21 19 18 18
70 71 72 72 72 72 71 71 69 67 63 60 58 59 59 58 56 54 51 47 43 39 37 35 35 36 36 35 33 31 31 32 33 33 32 32 30 30 31 31 30 30 30 29 29 29 30 30 32 33 33 34 35 36 36 36 36 36 36 35 35 33 31 30 29 28 27 25 24 23 22 21 20 20
69 70 70 71 71 71 72 71 69 67 65 62 60 60 61 59 57 55 53 49 44 40 38 37 36 37 38 37 35 33 33 34 34 33 33 32 32 32 33 33 32 31 31 30 29 29 28 29 30 31 31 32 33 34 35 35 35 35 35 35 34 32 31 30 30 29 28 26 25 25 25 24 23 22
68 69 70 70 70 70 71 71 69 67 65 63 62 62 61 60 58 56 54 50 46 42 39 38 37 38 39 39 37 36 35 36 35 33 33 34 34 34 35 35 34 33 33 33 32 30 30 30 30 30 30 30 31 32 33 33 34 34 35 34 33 31 31 31 31 30 29 28 27 26 27 27 26 25
67 68 70 69 68 69 71 72 71 69 67 66 64 64 64 62 60 58 56 52 49 45 41 40 39 39 40 41 39 38 37 36 35 34 35 36 35 36 36 36 35 35 34 34 34 34 33 33 32 31 30 30 31 32 32 32 33 34 34 34 33 31 31 31 31 31 30 29 28 28 28 28 28 27
66 67 68 67 67 68 70 72 72 71 70 69 67 66 66 64 62 60 58 56 53 49 44 42 41 41 42 42 41 39 38 37 36 36 36 37 37 37 37 36 35 35 36 37 37 37 36 36 35 34 33 32 32 32 32 33 34 34 34 34 33 31 30 30 30 31 31 31 31 31 30 30 29 29
67 65 64 66 67 67 68 70 72 72 71 70 68 67 68 67 64 61 59 57 55 51 47 44 43 43 44 44 42 40 40 39 38 37 37 37 38 38 38 38 37 37 38 39 39 38 38 38 38 37 37 36 36 35 35 35 35 35 35 36 35 34 32 31 31 31 32 33 33 33 33 33 33 32
69 66 63 62 63 64 65 67 70 72 71 69 68 68 69 69 67 63 61 59 56 53 50 46 45 45 46 45 43 42 41 40 39 39 39 39 38 37 37 37 37 37 39 39 38 37 38 39 39 39 39 40 40 39 38 37 37 37 37 37 36 36 36 35 34 34 34 34 34 34 35 35 35 35
70 67 64 62 61 60 60 63 68 72 72 70 69 68 69 71 70 66 63 61 58 55 52 50 49 48 47 47 46 43 41 39 40 40 41 40 39 38 37 37 36 37 37 38 38 38 37 37 38 38 39 40 41 41 40 39 39 39 39 39 39 38 38 38 37 36 36 36 36 36 36 36 36 36
70 67 65 64 63 61 59 60 65 71 73 72 71 69 70 71 72 70 66 63 60 58 55 55 53 51 49 49 47 44 41 39 39 39 40 41 40 39 38 36 35 35 36 38 39 38 36 36 36 36 37 38 39 40 41 41 41 40 40 40 40 40 40 39 38 37 37 37 36 36 37 37 38 38
69 67 65 64 64 63 61 60 62 67 73 74 72 70 71 72 73 72 69 65 63 60 58 58 56 52 50 49 48 45 42 39 38 38 39 40 40 39 37 35 33 33 34 36 37 37 36 36 36 36 36 37 37 38 40 42 42 41 40 40 40 40 40 39 38 37 38 37 37 37 37 37 37 37
65 65 63 63 62 62 61 61 62 64 70 74 73 71 71 72 73 73 71 68 64 62 61 60 58 54 51 51 50 48 45 42 40 39 39 40 38 36 36 35 33 31 32 32 34 34 35 35 35 35 36 35 35 36 38 39 40 40 40 39 39 39 39 38 37 36 36 37 36 35 35 35 35 36
61 60 59 59 60 60 59 61 63 64 67 70 72 72 71 72 73 74 73 71 67 64 63 62 60 56 54 53 53 51 48 45 43 43 43 40 37 36 36 36 35 35 34 33 33 34 34 35 35 36 35 34 34 35 35 37 37 38 38 37 37 36 36 35 34 34 34 34 33 33 34 34 34 34
55 55 55 55 55 56 56 58 61 64 67 67 68 70 71 70 72 74 74 72 69 66 65 64 62 59 56 55 54 54 52 48 46 46 46 43 40 39 38 38 38 39 39 37 36 36 36 37 36 36 36 35 34 34 34 36 38 38 38 38 37 36 36 35 35 36 35 34 33 34 35 34 33 31
49 51 53 53 52 52 53 55 57 61 65 67 67 69 70 69 70 72 72 71 69 68 67 65 64 61 59 57 56 57 55 52 50 49 47 45 44 43 42 41 41 41 41 40 38 38 38 39 38 37 37 37 36 35 35 36 39 40 40 40 40 40 40 40 39 39 39 38 36 36 36 35 33 32
43 46 49 51 50 49 50 53 55 57 62 66 68 69 70 71 72 72 72 71 71 70 68 66 65 64 61 58 58 59 59 56 53 52 49 47 47 47 46 45 44 43 43 42 40 39 39 40 40 40 39 38 38 37 36 37 39 41 42 43 43 43 44 44 44 43 43 42 41 39 39 38 36 35
37 40 44 48 50 49 48 50 53 55 59 64 68 70 71 73 74 74 72 71 71 71 70 68 67 67 65 61 60 61 62 60 57 55 53 52 52 52 52 50 48 47 46 45 43 42 42 42 42 42 42 40 40 39 38 38 39 40 42 43 44 45 46 47 47 46 46 46 45 43 42 41 41 40
32 34 38 42 46 48 48 49 50 53 57 61 66 70 72 74 75 74 72 71 72 73 72 71 70 70 69 65 62 63 64 65 63 60 59 58 58 58 57 55 53 51 51 49 47 46 45 45 45 45 44 44 43 41 39 39 39 40 41 42 43 45 46 47 48 48 48 48 48 47 45 44 44 44
31 30 32 35 38 41 45 48 49 51 55 60 65 69 72 74 75 75 74 73 73 73 74 74 73 72 71 69 66 66 67 68 66 64 63 63 62 61 60 59 57 55 55 54 52 51 50 48 48 48 48 46 45 44 42 41 41 40 41 42 43 45 46 47 48 49 49 49 50 50 49 48 47 47
35 31 31 32 32 34 37 43 47 49 53 59 65 67 69 71 73 75 75 74 73 74 75 74 73 72 72 70 68 68 69 69 69 68 67 66 64 64 63 61 59 59 58 57 56 55 53 52 53 54 52 50 49 48 46 45 43 43 42 43 44 44 46 47 48 49 49 50 51 52 52 51 49 49
39 36 37 36 34 32 31 34 40 43 46 54 62 66 67 68 70 72 73 74 74 74 74 74 73 72 71 69 68 68 68 69 69 70 70 68 66 66 65 62 61 61 60 59 59 58 56 56 58 57 56 55 54 54 52 49 46 45 44 44 44 45 45 47 48 49 49 49 50 49 49 49 48 48
43 40 40 40 39 36 32 31 35 38 40 46 56 63 68 69 70 72 73 74 74 74 74 74 73 72 70 68 67 68 68 68 68 69 70 69 67 68 68 65 63 62 61 60 60 61 60 61 62 60 59 59 58 59 58 53 48 47 47 47 47 47 47 48 48 49 49 48 47 47 46 46 46 46
48 45 42 41 41 41 39 37 38 39 39 42 48 56 65 71 73 74 76 75 72 71 73 74 73 72 70 68 67 68 68 68 69 69 70 70 69 69 70 68 65 64 63 63 64 65 65 64 63 62 62 61 60 60 60 56 53 52 52 51 51 50 50 50 50 50 50 49 48 47 46 46 46 46
53 50 46 43 44 45 45 43 41 42 41 41 42 48 57 66 73 76 78 77 74 71 72 73 73 72 70 68 67 67 68 68 69 70 71 71 71 71 71 71 69 69 69 68 68 69 68 65 63 63 64 63 62 62 61 59 56 55 55 54 54 53 52 53 53 52 51 50 49 48 47 47 47 46
56 56 52 47 46 48 49 48 45 43 43 43 43 45 48 55 64 72 76 78 78 76 75 74 74 73 71 69 68 67 68 70 71 71 72 73 73 73 72 72 72 72 72 71 71 71 70 68 66 65 65 65 65 65 63 61 59 58 57 56 55 54 54 55 55 54 53 51 50 50 49 48 48 48
57 59 57 53 50 50 50 50 49 48 47 47 47 47 47 49 55 62 69 73 76 78 77 76 76 74 73 71 70 69 70 72 73 73 73 74 74 74 74 74 74 73 72 71 71 72 72 71 70 69 68 68 68 67 65 64 63 61 60 58 56 56 56 57 56 56 55 54 53 52 52 51 51 52
59 61 60 57 54 53 52 52 53 52 51 50 49 49 50 51 54 58 62 66 70 74 76 76 76 75 74 72 70 70 71 73 74 74 74 74 74 73 72 73 73 73 72 71 72 73 73 73 73 73 72 72 71 70 68 68 67 66 64 62 60 59 59 59 59 59 58 57 56 56 55 55 56 57
60 61 62 61 58 56 54 54 55 55 54 53 51 50 50 53 55 57 59 61 65 69 73 76 77 76 75 73 72 71 71 72 74 74 74 73 72 70 70 70 70 71 71 72 72 73 74 74 74 74 75 75 74 73 72 71 71 70 69 67 65 64 63 64 64 64 63 63 62 61 61 61 61 62
61 61 62 62 62 60 57 56 56 57 57 56 54 52 51 53 56 57 58 59 62 65 69 73 76 77 76 75 74 74 73 73 74 75 75 73 70 68 67 68 69 69 70 71 72 73 75 76 75 75 75 76 76 76 75 75 74 73 73 72 71 69 69 69 69 69 69 68 68 67 66 66 67 69
62 63 63 63 63 63 61 60 59 59 59 58 57 56 56 57 59 60 59 59 59 61 64 68 71 74 75 76 76 76 76 75 75 76 76 75 72 70 68 68 68 68 69 71 72 73 75 76 76 76 76 77 78 78 78 77 76 76 76 75 75 74 73 73 73 74 74 74 73 73 73 73 74 75
63 64 65 65 65 65 65 64 64 63 62 61 60 60 60 61 62 64 64 63 60 60 61 64 67 70 72 73 74 75 76 76 76 76 77 76 75 74 73 72 71 70 70 71 73 74 76 77 78 78 79 80 81 81 81 80 80 79 79 79 79 78 78 77 78 78 79 79 79 79 79 79 79 79
67 67 68 68 68 68 68 68 68 67 66 65 63 63 64 65 66 67 68 68 66 63 62 62 65 67 69 70 71 72 73 74 75 75 76 77 77 76 77 77 76 76 76 76 77 77 78 79 81 82 82 83 83 83 83 83 82 82 82 82 82 82 81 81 82 83 83 83 83 84 84 84 84 84
69 70 71 71 72 72 71 71 71 71 70 69 67 66 68 70 71 71 72 72 72 70 68 67 67 69 70 71 71 72 73 74 75 76 77 77 78 78 79 80 80 81 81 81 81 80 79 80 80 82 83 84 85 85 85 85 84 84 84 84 85 85 85 85 85 86 86 86 87 87 87 88 88 89
71 72 72 73 75 75 75 75 75 75 75 74 73 72 72 73 75 76 76 76 76 75 74 73 73 73 74 75 76 76 76 77 78 78 78 79 80 80 81 82 82 83 83 84 84 83 83 82 81 82 83 84 85 85 86 86 87 87 87 87 88 88 88 88 89 89 90 90 90 91 91 91 92 92
73 74 74 75 76 77 79 79 79 79 79 79 78 77 76 77 78 79 80 80 80 80 79 78 77 77 78 79 80 80 81 82 82 82 82 83 83 83 83 83 84 84 85 85 85 86 87 87 86 86 86 86 87 87 87 87 88 88 89 90 90 91 91 91 92 92 92 93 93 93 93 94 94 94
74 75 76 77 78 79 80 81 83 83 83 83 82 82 81 81 81 82 83 83 84 84 84 83 82 81 82 82 84 84 85 86 86 87 87 88 88 87 86 86 86 87 88 88 88 88 90 91 91 91 91 91 91 91 91 90 90 91 92 92 93 93 93 94 94 94 94 94 94 94 94 95 96 97
Wind_Direction
240 241 241 242 241 238 237 242 247 245 242 241 238 234 231 232 233 231 228 231 235 237 238 238 236 232 229 225 223 223 224 225 228 231 233 233 232 231 229 225 222 220 218 218 217 216 215 215 216 217 219 222 224 227 230 233 236 239 243 247 251 253 255 260 265 269 274 277 282 289 293 294 296 298
240 240 240 241 240 238 236 241 247 246 240 237 236 233 230 230 232 231 229 231 235 235 235 236 236 235 232 230 228 228 228 228 230 232 233 232 229 226 225 222 219 218 217 217 216 216 216 216 217 219 221 223 225 228 231 234 236 240 243 247 249 250 253 257 262 266 270 275 283 288 290 292 295 297
241 240 240 240 240 239 239 241 244 245 238 232 232 231 228 228 230 231 230 232 234 234 234 235 236 236 236 234 233 232 230 229 230 232 232 231 227 223 222 220 218 217 217 217 217 217 217 218 219 220 222 224 227 229 232 234 236 239 243 246 247 248 250 255 260 262 267 274 281 285 286 290 294 296
241 241 240 240 241 240 240 240 242 243 236 229 229 229 226 225 228 231 232 232 233 233 234 235 236 236 237 237 236 234 231 230 230 231 231 229 226 221 219 218 217 217 217 218 218 219 219 220 221 223 224 226 228 230 232 234 237 240 243 245 246 247 249 253 257 260 266 273 277 276 278 285 289 292
241 241 240 241 242 241 240 240 240 239 233 227 226 226 225 224 226 230 231 232 232 232 233 234 234 236 238 238 237 234 230 228 229 229 229 227 224 220 217 217 217 217 218 219 220 221 221 222 223 224 226 227 229 231 233 235 238 240 243 244 246 247 249 251 254 259 266 270 270 267 268 275 281 287
239 240 240 240 241 241 239 239 239 236 230 225 224 224 224 224 226 229 231 232 232 231 232 234 234 237 238 237 236 232 229 228 227 227 226 224 222 220 216 216 217 218 220 221 222 222 222 223 224 225 226 228 230 232 234 236 238 240 242 243 244 246 247 250 254 260 264 265 261 257 259 267 274 283
238 239 239 240 240 239 237 237 237 233 228 225 223 223 223 224 226 228 230 233 232 229 229 232 233 236 237 236 233 229 226 226 226 225 223 221 221 220 217 216 217 219 222 223 225 224 224 224 225 226 227 228 231 233 234 236 237 240 242 243 244 245 248 251 255 259 260 257 252 250 256 265 270 279
235 236 237 238 239 237 235 235 236 234 228 225 223 222 223 224 225 227 229 232 232 227 225 229 232 234 235 234 229 224 222 223 224 223 220 219 220 218 217 216 216 220 223 225 227 228 227 227 227 227 228 230 232 234 235 236 237 239 242 244 246 248 250 253 256 257 254 248 246 250 259 266 266 273
233 235 235 236 237 237 235 234 235 234 231 227 224 222 223 223 224 225 227 230 231 225 221 226 231 232 232 232 227 222 221 221 222 221 218 217 218 217 215 215 215 218 223 225 227 229 230 230 230 230 231 232 234 235 235 235 236 238 241 244 247 250 252 253 253 252 249 245 246 252 260 265 264 270
231 233 234 235 235 235 234 233 234 234 232 230 226 223 223 222 223 224 225 227 229 224 218 222 229 231 231 230 226 222 221 221 221 220 218 216 217 217 215 214 215 218 221 224 226 227 230 231 233 234 235 235 236 235 235 235 235 238 240 244 247 249 251 251 249 247 245 246 249 252 258 262 264 271
230 231 232 233 233 233 233 232 232 232 232 230 227 224 222 221 222 222 223 224 226 223 218 218 225 231 232 229 225 223 222 222 221 220 219 217 217 217 217 217 217 218 221 223 226 227 229 231 233 234 236 236 236 235 235 235 236 238 240 242 245 247 247 246 244 243 245 247 250 252 254 258 264 271
229 230 231 232 232 231 231 232 231 230 231 230 227 225 223 221 220 221 221 221 223 224 220 217 221 229 233 230 226 224 224 224 223 222 221 220 219 219 220 220 220 221 222 224 226 228 230 231 233 234 235 236 237 236 236 236 237 238 239 240 240 241 241 241 240 242 245 248 250 253 255 257 262 268
227 229 230 231 231 229 229 231 231 230 231 230 227 224 222 220 219 220 219 219 222 224 222 219 219 226 232 232 228 226 226 226 225 224 224 223 222 223 224 224 224 225 225 226 227 229 230 231 233 234 236 237 237 237 236 236 236 236 235 234 233 234 236 238 239 241 244 248 251 254 256 258 261 264
226 227 229 230 229 226 226 228 229 228 229 229 226 222 221 220 219 219 218 219 222 224 224 221 219 222 229 232 229 226 226 227 226 225 225 225 225 225 227 228 228 229 229 230 231 231 232 233 234 235 237 237 237 237 237 235 234 234 232 230 228 230 234 236 238 240 244 247 250 253 256 258 261 264
226 227 228 228 227 226 225 225 226 226 225 226 225 221 219 219 219 219 218 219 222 224 224 222 219 220 226 230 229 225 223 225 226 225 225 227 227 227 229 230 230 231 232 233 234 234 235 237 238 238 238 238 239 238 238 237 235 233 231 229 228 231 233 235 238 241 244 247 251 254 257 260 263 266
226 227 228 227 226 226 226 224 224 224 223 223 224 222 218 218 219 218 218 219 221 222 223 223 221 220 223 226 227 225 222 222 224 225 226 228 228 228 229 229 229 231 233 234 235 236 237 239 240 240 239 239 238 238 238 238 237 234 232 230 231 234 237 238 241 243 246 249 252 256 259 263 265 267
225 226 228 227 225 225 225 223 222 222 221 221 223 222 219 218 219 219 218 219 221 221 222 224 223 221 221 222 224 224 222 221 224 225 226 228 229 229 228 228 228 230 233 235 237 237 237 238 239 240 240 239 238 237 237 239 239 237 236 235 237 239 241 243 244 246 249 251 254 258 261 264 266 268
223 225 227 227 226 224 223 221 220 219 218 218 220 221 219 218 218 218 219 220 221 222 222 224 224 221 219 219 221 223 224 224 223 224 225 226 228 229 228 228 228 231 233 235 237 237 236 237 238 239 240 240 239 238 237 238 240 240 240 240 242 243 244 245 247 249 252 254 256 259 262 264 266 268
220 223 224 226 227 226 224 220 218 217 217 216 218 219 218 217 217 217 218 219 221 222 222 223 224 221 217 217 219 220 223 224 224 224 223 224 226 228 229 229 229 232 234 236 236 236 235 236 238 239 240 240 240 240 238 238 240 241 241 241 243 244 246 248 249 251 253 255 258 260 262 264 265 267
219 221 222 225 227 227 225 222 218 216 216 216 217 217 217 217 216 215 216 219 221 222 223 223 224 221 217 217 218 218 219 221 224 225 223 222 223 226 229 231 231 233 236 237 237 236 235 236 239 240 241 240 239 239 239 239 240 242 243 243 244 246 248 250 251 253 255 257 259 261 263 264 266 268
219 221 223 226 228 228 226 223 219 216 216 216 216 216 216 216 216 216 216 218 220 222 223 223 223 221 218 218 218 217 217 218 221 224 226 224 224 225 229 232 233 235 238 238 238 239 240 241 242 244 244 243 240 239 240 240 241 242 244 245 246 248 250 252 253 255 256 257 259 262 264 266 269 271
219 221 223 226 228 228 228 227 224 219 217 217 217 216 216 216 216 217 217 218 219 221 222 223 223 222 221 219 218 218 217 217 219 224 228 229 229 229 232 234 235 238 241 241 241 242 244 246 247 249 250 248 245 243 243 244 244 245 246 247 248 249 250 252 253 253 254 256 260 264 266 268 270 271
219 220 223 225 227 228 229 229 228 224 219 218 217 217 216 216 216 217 217 217 218 220 221 222 223 224 223 222 220 220 220 219 221 225 230 233 235 235 234 235 237 240 242 243 244 245 247 248 249 250 251 251 250 248 248 248 249 249 250 251 252 252 252 252 252 252 253 256 261 266 268 268 267 265
220 222 223 224 226 228 228 227 228 226 221 218 217 216 216 216 217 218 218 218 218 219 220 222 223 225 225 223 222 222 223 224 226 229 231 234 237 238 238 238 239 240 241 243 245 247 248 248 248 248 249 249 250 249 249 250 251 252 253 254 254 254 254 254 254 254 254 256 261 264 266 266 264 260
222 224 225 225 227 229 229 227 226 226 222 218 215 216 216 217 217 217 218 218 219 218 219 221 224 225 226 226 226 225 225 227 230 233 235 237 239 241 241 241 242 242 241 242 245 248 247 246 246 247 247 247 248 248 248 249 250 251 253 253 254 255 256 256 256 255 255 256 257 260 262 263 261 257
225 228 229 229 229 231 233 231 229 229 226 219 215 215 216 218 218 218 218 219 220 220 219 220 223 226 227 228 229 228 228 229 232 235 238 239 241 242 243 243 244 244 243 244 245 248 248 246 245 245 246 246 247 247 248 248 249 251 252 253 254 255 256 256 256 256 256 256 256 257 259 261 260 258
221 229 234 234 234 234 236 235 232 231 230 224 219 217 217 218 220 220 220 221 222 222 221 221 224 226 228 229 231 231 231 231 232 235 238 239 241 243 244 245 244 244 245 245 245 247 248 247 245 245 245 246 246 247 248 249 251 252 254 255 256 256 256 257 257 256 256 256 256 257 258 260 260 259
204 218 230 235 235 234 235 236 234 232 231 227 222 220 219 219 221 223 223 223 224 223 223 224 225 226 228 230 232 233 233 233 234 237 239 239 241 243 245 246 244 243 245 246 247 247 248 248 248 247 246 246 246 247 248 249 252 254 255 256 257 257 257 257 257 257 257 257 257 258 260 261 261 259
195 205 217 224 228 230 231 233 233 232 231 228 225 222 220 219 221 224 225 225 225 225 224 224 225 226 227 229 231 232 233 234 236 239 240 241 242 243 244 244 244 243 244 246 248 248 249 250 251 250 249 248 248 249 249 249 251 254 257 259 259 259 260 259 259 258 258 258 259 260 262 263 262 261
194 201 210 214 216 218 220 224 228 228 229 228 226 223 221 220 220 222 224 224 225 225 225 225 225 226 228 229 231 233 235 236 237 239 241 242 243 244 244 243 243 243 244 247 249 250 251 252 252 251 251 251 251 250 249 250 252 256 258 261 262 262 262 261 260 259 259 258 259 260 261 262 263 263
194 200 209 211 210 210 210 213 218 220 224 228 227 224 222 222 221 219 219 221 223 224 224 225 226 227 229 231 233 235 236 237 238 239 241 242 243 244 244 244 243 242 245 248 251 251 252 253 253 252 252 253 253 252 251 251 254 257 258 260 262 263 263 263 262 260 258 257 258 258 259 261 263 264
196 200 207 209 207 207 208 210 213 214 217 225 230 226 222 222 223 221 220 221 223 223 224 226 227 229 230 232 234 236 237 238 238 239 240 240 241 243 245 245 244 243 245 248 250 250 250 251 253 253 253 253 254 255 254 254 255 256 258 259 261 262 264 264 263 261 259 257 257 258 259 261 263 265
199 201 205 207 206 205 207 209 213 214 215 220 228 229 226 223 222 223 223 224 224 225 226 228 228 229 230 232 234 235 236 237 238 239 239 239 240 242 244 245 245 245 246 246 247 248 248 250 252 253 253 253 254 255 256 256 256 257 258 259 260 261 262 263 262 261 260 259 258 259 259 260 261 262
201 203 205 207 206 206 207 209 212 215 215 216 220 226 229 227 224 223 224 225 226 227 228 229 229 230 230 231 232 234 235 236 237 238 239 239 240 241 243 244 245 246 246 246 247 247 247 248 250 250 250 252 254 255 256 256 256 256 257 259 259 260 260 260 261 261 260 259 258 257 258 258 259 260
203 206 207 207 208 208 208 210 212 214 215 215 215 218 223 227 228 226 224 225 227 228 229 229 230 229 229 230 232 234 234 235 235 237 239 240 240 241 242 244 246 247 247 247 247 247 246 246 248 249 249 250 252 253 255 256 256 256 256 258 258 259 259 259 260 259 259 257 256 256 257 258 259 261
206 207 209 209 209 210 210 211 212 214 216 217 217 216 217 221 227 228 226 225 226 228 229 229 230 229 229 230 232 234 235 235 235 236 238 240 240 241 241 243 244 245 246 246 246 246 246 245 246 247 248 249 250 251 253 255 255 255 255 256 256 257 257 257 258 258 257 256 256 257 257 259 260 262
208 208 210 211 211 212 213 214 214 215 216 219 221 221 219 220 224 228 229 228 226 226 228 229 230 230 230 230 231 233 235 236 236 237 238 239 239 240 240 241 242 243 243 244 244 245 245 244 244 244 245 247 248 249 251 252 253 254 254 255 255 255 255 256 256 257 257 257 257 258 259 260 262 264
212 210 211 212 213 213 214 216 217 218 218 219 221 222 222 221 223 227 230 230 229 228 228 228 229 230 231 231 232 233 235 237 238 239 238 237 237 238 239 239 240 241 241 242 242 243 243 243 243 243 244 245 247 248 249 250 251 252 253 253 254 254 255 255 256 256 257 257 258 259 260 262 263 265
217 215 213 213 214 215 215 216 219 220 220 220 220 220 220 220 222 225 228 230 231 230 229 229 230 230 231 232 233 234 235 237 239 240 239 238 237 238 239 239 239 240 241 241 241 242 242 243 243 243 244 245 246 247 249 249 250 250 251 252 253 254 254 255 256 257 258 258 259 260 261 262 264 265
217 218 217 216 216 216 217 218 219 221 223 222 220 219 219 220 221 223 226 229 230 230 230 230 230 231 232 233 234 234 236 237 239 240 240 240 239 239 239 240 240 241 241 241 241 241 242 242 243 244 244 245 246 247 248 249 250 250 251 252 253 254 254 255 257 258 259 260 261 262 263 264 265 266
217 218 219 219 220 220 220 220 220 222 224 225 223 220 218 219 220 221 223 226 228 230 229 229 229 230 231 232 233 234 235 236 238 239 240 241 241 240 240 240 240 241 242 242 242 243 243 244 245 245 246 247 248 249 249 249 249 250 251 252 253 254 255 256 257 259 260 261 262 263 264 265 266 267
220 220 220 221 222 223 223 223 223 222 224 225 226 223 221 219 220 221 222 223 225 227 228 228 228 228 229 230 231 232 233 234 235 237 239 240 241 241 241 241 242 242 243 244 245 245 246 247 248 248 249 249 250 250 250 250 250 251 251 253 254 255 255 256 257 259 259 260 261 263 264 264 265 266
222 223 223 223 224 224 225 226 226 226 225 225 225 225 224 222 221 222 222 223 223 225 226 227 227 227 228 229 230 231 232 233 234 236 237 239 240 241 241 242 242 243 243 244 245 246 247 248 249 250 250 251 251 251 252 252 252 253 253 253 254 255 256 256 257 258 259 260 261 262 263 264 265 266
223 225 226 226 226 227 227 228 228 228 228 227 226 226 226 225 224 224 224 224 224 225 226 227 227 228 228 229 230 231 232 233 235 236 237 238 239 241 242 243 243 243 243 243 244 244 245 246 247 248 249 250 250 251 252 252 253 253 253 254 254 255 256 257 258 258 259 260 261 263 264 264 265 266
223 225 227 228 228 229 229 230 230 230 230 230 228 227 227 226 226 225 226 226 226 226 226 227 228 229 229 230 231 232 233 234 235 236 237 238 239 240 241 242 243 243 243 243 243 243 244 244 245 246 247 248 249 250 251 252 252 252 253 253 254 255 256 257 258 259 260 261 262 263 264 265 266 267
Height
10832 10837 10841 10845 10847 10849 10853 10857 10860 10863 10866 10868 10872 10875 10878 10880 10882 10885 10887 10887 10887 10890 10892 10893 10894 10895 10896 10898 10899 10900 10901 10903 10905 10907 10907 10909 10911 10912 10914 10915 10917 10919 10921 10923 10925 10928 10931 10933 10936 10939 10942 10944 10946 10949 10950 10952 10954 10956 10958 10959 10960 10961 10962 10964 10964 10965 10965 10965 10965 10965 10965 10965 10964 10964
10823 10830 10835 10838 10841 10844 10848 10852 10855 10858 10861 10864 10867 10870 10873 10876 10878 10881 10883 10884 10884 10886 10888 10889 10890 10892 10894 10895 10896 10897 10898 10900 10902 10904 10905 10906 10908 10909 10911 10912 10914 10916 10918 10921 10923 10926 10928 10931 10934 10936 10939 10941 10944 10946 10948 10950 10952 10954 10955 10956 10957 10959 10960 10961 10962 10962 10963 10963 10963 10963 10963 10963 10962 10962
10814 10820 10827 10831 10834 10837 10842 10846 10850 10853 10856 10859 10862 10865 10869 10872 10874 10876 10879 10880 10880 10883 10884 10885 10887 10889 10891 10892 10893 10894 10896 10897 10899 10900 10902 10903 10905 10906 10908 10909 10911 10914 10916 10919 10921 10923 10926 10929 10931 10934 10936 10938 10941 10943 10945 10947 10949 10950 10952 10953 10954 10955 10957 10958 10959 10960 10960 10961 10961 10961 10961 10960 10960 10960
10805 10811 10817 10823 10826 10831 10836 10840 10843 10847 10850 10853 10856 10860 10864 10868 10870 10872 10874 10875 10876 10878 10880 10882 10884 10886 10887 10888 10889 10891 10893 10895 10896 10897 10899 10900 10902 10903 10905 10907 10909 10911 10914 10916 10919 10921 10924 10926 10929 10931 10933 10935 10937 10940 10942 10944 10945 10947 10948 10950 10951 10952 10954 10955 10956 10957 10958 10958 10958 10958 10958 10958 10957 10957
10797 10802 10808 10813 10818 10823 10829 10833 10837 10841 10844 10847 10851 10855 10859 10863 10865 10867 10870 10870 10871 10875 10877 10879 10881 10883 10884 10885 10886 10888 10890 10891 10893 10894 10896 10897 10899 10900 10902 10904 10906 10909 10911 10914 10916 10918 10921 10923 10925 10927 10929 10932 10934 10936 10938 10940 10942 10944 10945 10947 10948 10949 10950 10952 10953 10954 10955 10955 10955 10956 10955 10955 10955 10955
10789 10793 10799 10804 10809 10815 10822 10826 10830 10834 10837 10841 10846 10849 10854 10857 10860 10863 10865 10866 10867 10871 10873 10875 10878 10879 10879 10880 10882 10885 10887 10888 10889 10891 10892 10894 10896 10898 10900 10901 10903 10906 10908 10911 10913 10915 10918 10920 10922 10924 10926 10928 10930 10932 10935 10937 10938 10940 10942 10943 10945 10946 10948 10949 10950 10951 10952 10952 10952 10953 10953 10952 10952 10952
10780 10785 10791 10795 10800 10806 10814 10820 10824 10828 10832 10836 10840 10844 10848 10852 10854 10857 10860 10861 10863 10867 10870 10872 10874 10874 10875 10876 10878 10881 10883 10885 10885 10887 10889 10891 10893 10895 10897 10899 10901 10903 10905 10908 10910 10912 10914 10916 10918 10920 10922 10924 10927 10929 10931 10933 10935 10936 10938 10940 10941 10943 10944 10946 10947 10948 10948 10949 10949 10949 10949 10950 10950 10949
10771 10777 10782 10787 10791 10799 10807 10812 10817 10821 10825 10829 10833 10838 10842 10846 10849 10852 10855 10857 10859 10863 10867 10868 10869 10870 10871 10872 10875 10877 10879 10880 10881 10883 10885 10888 10890 10892 10894 10896 10898 10900 10902 10904 10906 10909 10911 10913 10915 10917 10919 10921 10923 10925 10927 10929 10931 10933 10934 10936 10937 10939 10941 10943 10944 10945 10945 10945 10946 10946 10947 10947 10947 10946
10762 10768 10774 10779 10784 10791 10799 10805 10809 10814 10819 10823 10827 10831 10835 10839 10843 10846 10850 10853 10856 10860 10863 10864 10865 10866 10867 10868 10870 10873 10875 10876 10878 10880 10882 10884 10886 10889 10891 10893 10895 10897 10899 10901 10903 10905 10907 10909 10912 10914 10916 10918 10920 10921 10923 10925 10927 10928 10930 10932 10933 10935 10937 10939 10940 10941 10941 10942 10943 10943 10943 10943 10943 10943
10754 10760 10766 10771 10777 10784 10791 10797 10802 10807 10812 10817 10822 10825 10829 10833 10837 10841 10845 10848 10851 10855 10858 10860 10861 10862 10863 10864 10866 10869 10871 10873 10875 10876 10878 10880 10883 10885 10888 10890 10892 10894 10895 10897 10899 10902 10904 10906 10908 10910 10912 10913 10915 10917 10919 10921 10922 10924 10926 10928 10929 10931 10933 10935 10936 10937 10938 10939 10939 10940 10940 10940 10940 10940
10746 10751 10757 10763 10769 10776 10782 10788 10794 10799 10805 10811 10816 10819 10822 10827 10832 10835 10839 10843 10846 10849 10852 10856 10858 10858 10858 10860 10863 10865 10867 10869 10870 10872 10874 10877 10879 10882 10884 10886 10888 10890 10892 10894 10896 10898 10900 10903 10904 10906 10908 10909 10911 10913 10915 10916 10918 10920 10921 10923 10925 10927 10929 10931 10932 10933 10934 10935 10936 10936 10936 10937 10937 10937
10739 10744 10749 10754 10761 10767 10773 10779 10786 10792 10797 10804 10809 10813 10817 10822 10826 10830 10834 10838 10841 10843 10846 10850 10852 10853 10854 10856 10859 10861 10862 10864 10865 10868 10871 10873 10875 10877 10879 10881 10883 10886 10888 10890 10892 10894 10897 10899 10900 10902 10904 10906 10908 10909 10911 10913 10914 10915 10917 10918 10920 10923 10925 10927 10928 10929 10930 10931 10932 10932 10933 10933 10933 10933
10732 10738 10742 10746 10752 10760 10766 10772 10779 10785 10791 10797 10803 10807 10811 10816 10821 10825 10829 10833 10835 10838 10841 10844 10847 10849 10850 10851 10854 10856 10858 10859 10862 10865 10867 10868 10871 10873 10874 10876 10879 10881 10883 10886 10888 10890 10893 10895 10896 10898 10900 10902 10904 10906 10907 10909 10910 10911 10912 10914 10916 10918 10920 10922 10924 10925 10926 10927 10928 10928 10929 10929 10929 10930
10725 10730 10733 10739 10745 10752 10758 10764 10770 10776 10782 10788 10795 10800 10805 10810 10815 10819 10824 10827 10830 10832 10835 10838 10841 10844 10845 10846 10848 10852 10854 10856 10858 10861 10862 10864 10866 10868 10870 10872 10875 10877 10879 10882 10884 10886 10888 10890 10892 10895 10897 10899 10900 10902 10903 10905 10905 10907 10908 10910 10912 10914 10916 10917 10919 10921 10922 10923 10924 10924 10924 10925 10925 10926
10717 10722 10727 10733 10739 10744 10750 10755 10760 10766 10772 10778 10785 10791 10797 10803 10807 10812 10818 10821 10824 10827 10829 10832 10835 10839 10840 10840 10843 10847 10850 10852 10854 10857 10858 10860 10862 10864 10865 10868 10870 10873 10875 10877 10878 10881 10884 10886 10888 10891 10893 10895 10897 10898 10900 10901 10902 10903 10904 10906 10908 10910 10911 10913 10915 10916 10917 10918 10919 10919 10920 10921 10922 10922
10708 10714 10721 10727 10731 10736 10741 10747 10753 10759 10765 10771 10777 10783 10790 10795 10800 10805 10811 10814 10817 10820 10823 10826 10830 10833 10834 10836 10839 10842 10845 10848 10850 10853 10854 10856 10858 10860 10861 10863 10866 10868 10869 10871 10873 10877 10880 10882 10883 10886 10889 10890 10892 10894 10895 10897 10898 10899 10900 10902 10904 10906 10907 10909 10910 10912 10913 10913 10914 10915 10916 10917 10917 10918
10700 10707 10713 10719 10723 10728 10733 10739 10745 10751 10757 10764 10770 10777 10783 10789 10794 10799 10804 10807 10811 10814 10817 10820 10823 10826 10828 10831 10834 10836 10840 10844 10846 10848 10849 10851 10853 10856 10857 10859 10861 10863 10865 10866 10869 10873 10875 10876 10878 10880 10883 10885 10886 10888 10890 10892 10894 10895 10896 10898 10900 10902 10903 10904 10906 10907 10908 10909 10910 10911 10912 10912 10913 10913
10694 10701 10707 10711 10715 10720 10725 10731 10737 10743 10749 10756 10763 10770 10776 10781 10786 10791 10796 10800 10803 10807 10811 10814 10816 10819 10823 10826 10828 10831 10836 10839 10841 10843 10844 10846 10849 10851 10852 10854 10857 10858 10860 10863 10865 10867 10870 10871 10873 10875 10877 10879 10881 10884 10886 10888 10888 10890 10892 10894 10896 10897 10898 10900 10901 10902 10903 10904 10905 10906 10906 10907 10908 10908
10687 10694 10700 10703 10707 10712 10718 10723 10729 10734 10740 10747 10754 10761 10768 10773 10778 10783 10788 10792 10796 10799 10803 10805 10808 10812 10817 10820 10823 10827 10831 10834 10836 10838 10840 10842 10844 10846 10848 10850 10853 10854 10856 10858 10859 10861 10865 10866 10868 10870 10871 10873 10876 10879 10881 10882 10883 10885 10887 10889 10891 10892 10893 10895 10896 10897 10897 10898 10900 10901 10901 10902 10902 10902
10680 10687 10691 10695 10699 10704 10710 10715 10721 10726 10731 10738 10745 10753 10759 10764 10770 10776 10780 10784 10788 10792 10796 10798 10802 10807 10812 10815 10819 10823 10827 10829 10831 10833 10835 10837 10839 10842 10844 10846 10848 10850 10852 10853 10855 10857 10859 10861 10863 10864 10866 10868 10872 10874 10875 10876 10878 10880 10882 10884 10885 10887 10888 10889 10891 10892 10892 10893 10894 10896 10896 10896 10896 10896
10674 10680 10685 10689 10693 10698 10703 10709 10715 10719 10724 10730 10737 10744 10751 10757 10762 10768 10773 10777 10781 10785 10789 10792 10797 10802 10806 10809 10813 10817 10821 10824 10826 10828 10829 10831 10834 10837 10839 10841 10843 10845 10847 10849 10851 10853 10855 10856 10857 10859 10860 10863 10866 10868 10869 10871 10873 10875 10877 10878 10880 10881 10882 10884 10885 10886 10887 10887 10889 10890 10891 10891 10891 10891
10669 10675 10680 10684 10688 10694 10699 10704 10709 10714 10720 10726 10733 10738 10744 10749 10755 10760 10765 10769 10774 10778 10782 10786 10791 10796 10800 10803 10807 10811 10814 10818 10821 10822 10823 10825 10829 10832 10833 10835 10838 10840 10841 10844 10846 10848 10849 10851 10852 10853 10855 10857 10860 10862 10864 10865 10867 10869 10871 10872 10874 10875 10876 10878 10879 10881 10882 10882 10883 10884 10886 10886 10887 10886
10666 10671 10675 10679 10684 10689 10694 10699 10703 10708 10714 10721 10728 10733 10739 10744 10749 10752 10757 10762 10767 10771 10776 10780 10785 10789 10793 10797 10801 10804 10808 10812 10814 10816 10818 10821 10824 10826 10828 10830 10832 10834 10835 10838 10840 10842 10844 10845 10846 10848 10849 10851 10853 10855 10858 10859 10861 10862 10864 10866 10868 10869 10870 10872 10873 10875 10876 10877 10878 10878 10879 10881 10882 10882
10663 10667 10671 10675 10679 10683 10688 10692 10695 10699 10706 10713 10720 10727 10734 10740 10743 10746 10751 10757 10761 10764 10769 10774 10779 10782 10786 10790 10795 10798 10801 10805 10807 10809 10812 10815 10818 10820 10822 10824 10826 10827 10829 10832 10834 10836 10838 10839 10840 10842 10843 10845 10846 10849 10851 10853 10854 10856 10858 10860 10862 10863 10865 10866 10867 10869 10870 10871 10872 10873 10873 10874 10876 10877
10660 10663 10668 10672 10675 10679 10682 10685 10689 10693 10698 10705 10712 10720 10726 10732 10734 10738 10744 10750 10753 10758 10763 10768 10772 10775 10779 10784 10788 10791 10794 10798 10800 10802 10806 10809 10811 10814 10816 10819 10820 10822 10824 10826 10828 10830 10831 10833 10834 10836 10837 10838 10840 10842 10844 10846 10847 10849 10851 10853 10855 10857 10858 10860 10861 10862 10864 10865 10866 10867 10868 10869 10870 10871
10657 10660 10664 10668 10671 10674 10677 10681 10686 10690 10693 10699 10706 10713 10718 10722 10725 10730 10737 10743 10747 10752 10757 10762 10765 10768 10772 10777 10781 10784 10787 10790 10793 10795 10799 10802 10804 10806 10809 10812 10814 10816 10818 10820 10822 10823 10825 10827 10828 10829 10831 10832 10833 10835 10837 10839 10841 10843 10844 10846 10848 10850 10852 10853 10854 10856 10857 10858 10859 10860 10862 10863 10864 10865
10654 10657 10660 10663 10666 10670 10673 10677 10682 10686 10689 10694 10700 10705 10709 10713 10718 10724 10731 10736 10740 10746 10751 10755 10758 10761 10765 10770 10774 10777 10780 10782 10784 10787 10790 10794 10796 10798 10801 10805 10808 10810 10811 10813 10815 10816 10818 10820 10822 10823 10825 10826 10827 10829 10831 10833 10834 10836 10838 10840 10841 10843 10844 10846 10847 10849 10850 10851 10852 10853 10855 10856 10857 10858
10650 10653 10655 10658 10662 10665 10668 10671 10675 10680 10683 10687 10692 10697 10703 10708 10714 10719 10724 10729 10734 10739 10744 10748 10751 10755 10759 10764 10767 10770 10771 10774 10777 10780 10782 10786 10789 10792 10795 10798 10801 10803 10803 10805 10807 10809 10811 10814 10816 10816 10818 10820 10822 10823 10825 10826 10828 10830 10831 10833 10835 10836 10837 10839 10840 10842 10843 10844 10845 10846 10847 10849 10850 10851
10644 10648 10651 10654 10657 10660 10663 10666 10669 10673 10676 10679 10684 10691 10697 10703 10709 10713 10718 10724 10729 10733 10737 10741 10744 10748 10751 10755 10759 10761 10763 10767 10770 10772 10773 10778 10782 10785 10788 10790 10793 10795 10795 10797 10800 10802 10805 10807 10808 10808 10810 10814 10816 10817 10818 10819 10821 10823 10825 10826 10828 10829 10830 10832 10833 10834 10835 10837 10837 10838 10839 10841 10842 10844
10638 10642 10645 10648 10652 10655 10658 10661 10665 10668 10671 10673 10677 10684 10690 10695 10699 10704 10710 10715 10720 10724 10729 10732 10736 10739 10743 10747 10751 10753 10756 10760 10764 10764 10766 10771 10775 10777 10779 10783 10785 10787 10788 10790 10793 10796 10798 10798 10799 10800 10803 10807 10808 10808 10810 10813 10815 10817 10818 10820 10820 10822 10823 10824 10825 10826 10828 10829 10829 10831 10832 10833 10834 10836
10633 10636 10638 10642 10646 10649 10653 10657 10660 10664 10666 10668 10670 10676 10682 10686 10690 10696 10700 10703 10708 10714 10719 10723 10727 10731 10735 10740 10743 10745 10748 10753 10756 10757 10760 10764 10767 10768 10770 10774 10778 10780 10781 10784 10787 10789 10789 10789 10790 10793 10796 10798 10799 10800 10802 10807 10809 10810 10811 10812 10813 10814 10815 10816 10817 10818 10819 10820 10822 10823 10824 10825 10827 10828
10627 10630 10633 10636 10640 10643 10647 10651 10655 10658 10662 10663 10665 10669 10674 10678 10683 10688 10691 10694 10700 10706 10710 10714 10718 10722 10727 10732 10735 10737 10741 10744 10747 10750 10753 10756 10759 10760 10762 10765 10770 10772 10774 10777 10779 10780 10780 10781 10783 10785 10787 10789 10791 10792 10794 10799 10801 10802 10803 10804 10805 10806 10808 10809 10809 10810 10811 10812 10814 10815 10816 10818 10819 10820
10620 10624 10627 10631 10634 10637 10641 10645 10649 10653 10656 10659 10661 10664 10667 10670 10675 10680 10684 10689 10694 10699 10702 10706 10710 10715 10720 10724 10726 10729 10732 10735 10738 10741 10744 10747 10751 10752 10753 10756 10760 10762 10764 10766 10768 10770 10772 10775 10777 10777 10778 10780 10783 10784 10786 10789 10792 10793 10794 10796 10797 10799 10800 10800 10801 10802 10803 10805 10806 10807 10809 10810 10811 10813
10614 10618 10621 10625 10629 10632 10636 10639 10643 10647 10650 10654 10657 10660 10662 10664 10668 10672 10677 10682 10686 10690 10694 10698 10702 10707 10711 10715 10717 10720 10724 10726 10729 10732 10735 10739 10742 10744 10746 10747 10750 10752 10754 10757 10760 10762 10765 10767 10768 10769 10770 10771 10773 10775 10777 10780 10782 10784 10785 10787 10788 10790 10791 10792 10793 10794 10796 10797 10798 10799 10801 10803 10803 10804
10608 10612 10615 10618 10622 10626 10630 10633 10637 10640 10644 10647 10650 10654 10657 10659 10661 10664 10669 10674 10678 10681 10685 10689 10693 10698 10703 10706 10709 10712 10715 10718 10721 10725 10727 10730 10733 10736 10738 10740 10742 10744 10746 10749 10751 10753 10755 10758 10759 10760 10761 10763 10764 10766 10768 10771 10773 10775 10776 10778 10780 10781 10782 10784 10785 10787 10788 10789 10790 10791 10793 10795 10795 10796
10601 10605 10608 10612 10615 10619 10623 10627 10630 10634 10637 10640 10643 10646 10649 10652 10654 10657 10661 10665 10669 10673 10677 10681 10685 10689 10694 10698 10701 10703 10706 10709 10712 10716 10718 10720 10723 10727 10730 10732 10733 10734 10736 10739 10741 10742 10745 10747 10749 10750 10752 10753 10755 10757 10759 10761 10763 10765 10767 10769 10771 10772 10773 10775 10777 10778 10779 10780 10782 10783 10785 10786 10787 10787
10594 10598 10602 10605 10609 10612 10616 10620 10623 10627 10630 10633 10636 10639 10642 10645 10647 10650 10653 10656 10660 10664 10668 10672 10676 10680 10684 10688 10692 10694 10697 10700 10703 10705 10708 10710 10713 10717 10720 10721 10723 10724 10726 10728 10731 10733 10734 10735 10737 10739 10741 10743 10745 10747 10749 10752 10754 10755 10757 10759 10761 10763 10765 10766 10767 10769 10770 10771 10773 10774 10776 10778 10778 10778
10588 10591 10595 10599 10602 10606 10609 10612 10616 10619 10623 10626 10629 10632 10635 10638 10641 10644 10646 10649 10652 10656 10660 10663 10667 10671 10674 10678 10682 10685 10688 10690 10692 10694 10697 10700 10703 10706 10709 10710 10712 10714 10716 10718 10720 10722 10724 10725 10726 10728 10730 10732 10734 10737 10739 10742 10744 10745 10747 10749 10750 10752 10755 10756 10758 10759 10761 10762 10764 10765 10767 10769 10769 10769
10581 10585 10588 10592 10595 10598 10602 10605 10608 10611 10614 10618 10621 10624 10627 10631 10634 10637 10640 10642 10645 10648 10651 10654 10658 10661 10664 10668 10672 10675 10678 10680 10682 10684 10686 10689 10693 10696 10698 10700 10702 10704 10706 10707 10709 10711 10713 10714 10716 10718 10720 10721 10724 10726 10729 10731 10733 10734 10736 10737 10739 10741 10744 10746 10747 10749 10750 10752 10754 10755 10756 10758 10759 10760
10573 10577 10580 10584 10587 10591 10594 10597 10600 10603 10606 10609 10612 10616 10619 10622 10626 10629 10631 10634 10637 10640 10642 10645 10648 10651 10655 10658 10661 10664 10667 10670 10672 10673 10675 10677 10681 10684 10687 10689 10692 10694 10695 10697 10698 10700 10702 10704 10705 10707 10708 10710 10713 10716 10719 10721 10723 10724 10725 10726 10728 10730 10733 10735 10737 10738 10740 10741 10743 10744 10745 10747 10748 10749
10564 10568 10572 10575 10578 10582 10585 10588 10591 10594 10597 10601 10604 10608 10611 10614 10617 10620 10622 10625 10628 10631 10634 10637 10639 10642 10645 10648 10651 10654 10657 10659 10661 10663 10664 10666 10669 10673 10676 10678 10680 10682 10684 10686 10688 10690 10692 10693 10695 10696 10698 10700 10702 10705 10708 10711 10713 10714 10715 10716 10717 10719 10722 10724 10726 10727 10729 10730 10732 10733 10734 10735 10736 10738
10557 10560 10563 10566 10569 10573 10576 10579 10582 10585 10588 10591 10595 10598 10602 10605 10608 10611 10613 10616 10619 10621 10624 10627 10630 10632 10635 10638 10641 10643 10646 10648 10650 10652 10654 10656 10659 10662 10665 10667 10669 10671 10673 10675 10678 10680 10682 10684 10686 10688 10689 10691 10693 10695 10698 10700 10703 10705 10706 10706 10707 10708 10711 10713 10715 10716 10718 10719 10721 10722 10723 10724 10725 10726
10548 10551 10555 10557 10560 10563 10566 10569 10571 10574 10577 10581 10584 10587 10591 10594 10597 10600 10603 10606 10609 10612 10614 10617 10619 10622 10624 10627 10630 10633 10635 10637 10639 10642 10644 10646 10648 10650 10653 10656 10658 10660 10662 10665 10668 10670 10672 10674 10676 10678 10679 10681 10682 10685 10687 10690 10692 10694 10695 10696 10696 10697 10699 10701 10703 10705 10706 10708 10709 10710 10711 10712 10713 10714
10539 10542 10545 10548 10551 10554 10556 10558 10561 10563 10566 10569 10573 10576 10579 10583 10586 10589 10592 10595 10598 10601 10604 10606 10608 10611 10613 10616 10618 10621 10624 10625 10627 10630 10633 10634 10636 10639 10641 10644 10646 10648 10650 10653 10655 10658 10660 10663 10664 10666 10667 10669 10670 10673 10675 10678 10680 10682 10683 10684 10685 10686 10687 10689 10690 10692 10694 10696 10697 10698 10699 10700 10701 10702
10529 10532 10535 10537 10540 10543 10545 10548 10550 10553 10555 10558 10561 10565 10568 10571 10574 10577 10580 10583 10586 10589 10592 10595 10597 10600 10602 10604 10607 10609 10612 10613 10615 10618 10620 10622 10624 10626 10629 10631 10632 10634 10636 10639 10641 10644 10647 10649 10652 10653 10655 10657 10658 10661 10663 10665 10667 10669 10670 10671 10673 10674 10675 10676 10678 10679 10682 10683 10685 10686 10687 10687 10688 10688